TimeCST,TemperatureF,Dew PointF,Humidity,Sea Level PressureIn,VisibilityMPH,Wind Direction,Wind SpeedMPH,Gust SpeedMPH,PrecipitationIn,Events,Conditions,WindDirDegrees,DateUTC
12:53 AM,6.1,1.9,83,30.55,10.0,Calm,Calm,-,N/A,,Clear,0,2013-01-24 06:53:00
1:53 AM,5.0,-0.0,80,30.54,10.0,NE,4.6,-,N/A,,Clear,50,2013-01-24 07:53:00
2:53 AM,3.9,-0.9,80,30.54,10.0,Calm,Calm,-,N/A,,Clear,0,2013-01-24 08:53:00
3:53 AM,3.9,-0.0,84,30.53,10.0,Calm,Calm,-,N/A,,Clear,0,2013-01-24 09:53:00
4:53 AM,5.0,-0.0,80,30.52,10.0,East,4.6,-,N/A,,Clear,100,2013-01-24 10:53:00
5:53 AM,3.9,-0.0,84,30.50,10.0,SE,5.8,-,N/A,,Clear,130,2013-01-24 11:53:00
6:53 AM,3.0,-0.9,84,30.48,10.0,SE,5.8,-,N/A,,Clear,140,2013-01-24 12:53:00
7:53 AM,3.0,-0.9,84,30.48,10.0,SE,8.1,-,N/A,,Clear,140,2013-01-24 13:53:00
8:53 AM,3.9,-0.9,80,30.47,10.0,SE,10.4,-,N/A,,Clear,140,2013-01-24 14:53:00
9:53 AM,6.1,-0.0,76,30.47,10.0,SE,10.4,-,N/A,,Clear,140,2013-01-24 15:53:00
10:53 AM,9.0,1.0,70,30.44,10.0,SE,13.8,20.7,N/A,,Clear,140,2013-01-24 16:53:00
11:53 AM,12.9,-0.0,56,30.39,10.0,SSE,13.8,-,N/A,,Partly Cloudy,160,2013-01-24 17:53:00
12:53 PM,16.0,-2.0,45,30.33,10.0,South,16.1,26.5,N/A,,Clear,180,2013-01-24 18:53:00
1:53 PM,16.0,-0.0,49,30.26,10.0,South,15.0,24.2,N/A,,Partly Cloudy,170,2013-01-24 19:53:00
2:06 PM,17.6,-0.4,45,30.12,10.0,South,20.7,27.6,N/A,,Mostly Cloudy,170,2013-01-24 20:06:00
2:53 PM,18.0,1.0,48,30.21,10.0,SSE,17.3,25.3,N/A,,Overcast,160,2013-01-24 20:53:00
3:53 PM,19.9,1.9,46,30.19,10.0,South,16.1,24.2,N/A,,Overcast,170,2013-01-24 21:53:00
4:15 PM,21.2,1.4,42,30.05,10.0,South,13.8,-,N/A,,Scattered Clouds,180,2013-01-24 22:15:00
4:53 PM,21.9,3.0,44,30.17,10.0,South,11.5,-,N/A,,Clear,190,2013-01-24 22:53:00
5:53 PM,19.9,3.9,50,30.17,10.0,South,9.2,-,N/A,,Clear,180,2013-01-24 23:53:00
6:53 PM,21.0,7.0,55,30.18,10.0,South,11.5,-,N/A,,Clear,190,2013-01-25 00:53:00
7:53 PM,19.9,8.1,60,30.19,10.0,South,9.2,-,N/A,,Clear,190,2013-01-25 01:53:00
8:53 PM,19.9,9.0,62,30.19,10.0,South,5.8,-,N/A,,Clear,190,2013-01-25 02:53:00
9:53 PM,19.9,9.0,62,30.18,10.0,South,6.9,-,N/A,,Clear,180,2013-01-25 03:53:00
10:53 PM,19.0,9.0,65,30.19,10.0,South,4.6,-,N/A,,Clear,190,2013-01-25 04:53:00
11:53 PM,16.0,8.1,71,30.20,10.0,Calm,Calm,-,N/A,,Clear,0,2013-01-25 05:53:00